Weather History for Logansport, IN

Change the Weather History Date:

Saturday, December 22, 2012

  Actual Average Record
Temperature  
Mean Temperature 24 °F -  
Max Temperature 30 °F 36 °F 39 °F (2014)
Min Temperature 19 °F 18 °F 19 °F (2012)
Degree Days  
Heating Degree Days 40    
Moisture  
Dew Point 20 °F    
Average Humidity 83    
Maximum Humidity 93    
Minimum Humidity 69    
Precipitation  
Precipitation 0.00 in - - ()
Sea Level Pressure  
Sea Level Pressure 30.14 in    
Wind  
Wind Speed 10 mph (SW)    
Max Wind Speed 15 mph    
Max Gust Speed 20 mph    
Visibility 10 miles    
Events      
Averages and records for this station are not official NWS values.
T = Trace of Precipitation, MM = Missing Value Source: NWS Daily Summary

Daily Weather History Graph

Daily Weather History Graph

Search for Another Location

Airport:

Trip Planner

Search our weather history database for the weather conditions in past years. The results will help you decide how hot, cold, wet, or windy it might be!

Date:

Astronomy

Dec. 22, 2012 Rise Set
Actual Time 8:06 AM EST 5:22 PM EST
Civil Twilight 7:35 AM EST 5:53 PM EST
Nautical Twilight 7:01 AM EST 6:27 PM EST
Astronomical Twilight 6:27 AM EST 7:00 PM EST
Moon 1:40 PM EST (12/22) 2:50 AM EST (12/22)
Length of Visible Light 10h 17m
Length of Day
9h 15m
Waxing Gibbous, 73% of the Moon is Illuminated
Dec 22
Waxing Gibbous
Dec 28
Full
Jan 4
Last Quarter
Jan 11
New
Jan 18
First Quarter

Hourly Weather History & Observations

Time (EST) Temp. Windchill Dew Point Humidity Pressure Visibility Wind Dir Wind Speed Gust Speed Precip Events Conditions
12:15 AM 24.8 °F 13.4 °F 19.4 °F 80% 30.13 in 10.0 mi WNW 12.7 mph 18.4 mph N/A   Overcast
12:35 AM 26.6 °F 15.7 °F 19.4 °F 74% 30.12 in 10.0 mi West 12.7 mph - N/A   Overcast
12:55 AM 26.6 °F 15.7 °F 21.2 °F 80% 30.13 in 10.0 mi West 12.7 mph 18.4 mph N/A   Overcast
1:15 AM 24.8 °F 13.4 °F 21.2 °F 86% 30.13 in 10.0 mi West 12.7 mph 17.3 mph N/A   Overcast
1:35 AM 24.8 °F 12.9 °F 21.2 °F 86% 30.14 in 10.0 mi West 13.8 mph - N/A   Overcast
1:55 AM 24.8 °F 13.4 °F 21.2 °F 86% 30.15 in 10.0 mi West 12.7 mph - N/A   Overcast
2:15 AM 23.0 °F 11.1 °F 19.4 °F 86% 30.16 in 10.0 mi West 12.7 mph - N/A   Overcast
2:35 AM 23.0 °F 11.7 °F 19.4 °F 86% 30.16 in 10.0 mi West 11.5 mph 19.6 mph N/A   Overcast
2:55 AM 23.0 °F 12.4 °F 19.4 °F 86% 30.17 in 10.0 mi WNW 10.4 mph 17.3 mph N/A   Overcast
3:15 AM 23.0 °F 11.7 °F 19.4 °F 86% 30.17 in 10.0 mi West 11.5 mph - N/A   Overcast
3:35 AM 23.0 °F 12.4 °F 19.4 °F 86% 30.17 in 10.0 mi West 10.4 mph - N/A   Overcast
3:55 AM 23.0 °F 13.1 °F 19.4 °F 86% 30.17 in 10.0 mi West 9.2 mph - N/A   Overcast
4:15 AM 23.0 °F 12.4 °F 19.4 °F 86% 30.16 in 10.0 mi West 10.4 mph - N/A   Overcast
4:35 AM 23.0 °F 13.1 °F 19.4 °F 86% 30.16 in 10.0 mi West 9.2 mph - N/A   Overcast
4:55 AM 23.0 °F 13.1 °F 19.4 °F 86% 30.16 in 10.0 mi West 9.2 mph - N/A   Overcast
5:15 AM 23.0 °F 13.9 °F 19.4 °F 86% 30.17 in 10.0 mi West 8.1 mph - N/A   Overcast
5:35 AM 23.0 °F 13.9 °F 19.4 °F 86% 30.17 in 10.0 mi West 8.1 mph - N/A   Overcast
5:55 AM 23.0 °F 13.1 °F 19.4 °F 86% 30.17 in 10.0 mi West 9.2 mph - N/A   Overcast
6:15 AM 23.0 °F 10.6 °F 19.4 °F 86% 30.18 in 10.0 mi West 13.8 mph - N/A   Overcast
6:35 AM 21.2 °F 7.8 °F 17.6 °F 86% 30.19 in 10.0 mi West 15.0 mph - N/A   Overcast
6:55 AM 21.2 °F 8.9 °F 17.6 °F 86% 30.19 in 10.0 mi West 12.7 mph - N/A   Overcast
7:15 AM 21.2 °F 8.3 °F 17.6 °F 86% 30.20 in 10.0 mi WSW 13.8 mph - N/A   Overcast
7:35 AM 21.2 °F 9.5 °F 17.6 °F 86% 30.21 in 10.0 mi West 11.5 mph - N/A   Overcast
7:55 AM 21.2 °F 9.5 °F 17.6 °F 86% 30.22 in 10.0 mi West 11.5 mph - N/A   Overcast
8:15 AM 19.4 °F 7.9 °F 15.8 °F 86% 30.23 in 10.0 mi West 10.4 mph - N/A   Overcast
8:35 AM 19.4 °F 6.0 °F 15.8 °F 86% 30.23 in 10.0 mi West 13.8 mph - N/A   Overcast
8:55 AM 19.4 °F 7.9 °F 15.8 °F 86% 30.24 in 10.0 mi West 10.4 mph - N/A   Scattered Clouds
9:15 AM 19.4 °F 11.5 °F 15.8 °F 86% 30.24 in 10.0 mi West 5.8 mph - N/A   Clear
9:35 AM 19.4 °F 9.5 °F 17.6 °F 93% 30.24 in 10.0 mi WSW 8.1 mph - N/A   Scattered Clouds
9:55 AM 21.2 °F 12.6 °F 17.6 °F 86% 30.24 in 10.0 mi West 6.9 mph - N/A   Scattered Clouds
10:15 AM 21.2 °F 10.9 °F 17.6 °F 86% 30.24 in 10.0 mi SW 9.2 mph - N/A   Clear
10:35 AM 21.2 °F 11.7 °F 17.6 °F 86% 30.24 in 10.0 mi WSW 8.1 mph - N/A   Clear
10:55 AM 23.0 °F 13.9 °F 17.6 °F 80% 30.23 in 10.0 mi West 8.1 mph - N/A   Clear
11:15 AM 23.0 °F 13.1 °F 17.6 °F 80% 30.23 in 10.0 mi WSW 9.2 mph - N/A   Clear
11:35 AM 24.8 °F 16.1 °F 19.4 °F 80% 30.22 in 10.0 mi West 8.1 mph - N/A   Clear
11:55 AM 24.8 °F 15.3 °F 19.4 °F 80% 30.21 in 10.0 mi WSW 9.2 mph - N/A   Clear
12:15 PM 26.6 °F 16.2 °F 19.4 °F 74% 30.21 in 10.0 mi WSW 11.5 mph - N/A   Clear
12:35 PM 26.6 °F 18.2 °F 19.4 °F 74% 30.20 in 10.0 mi WSW 8.1 mph - N/A   Clear
12:55 PM 28.4 °F 19.1 °F 19.4 °F 69% 30.19 in 10.0 mi WSW 10.4 mph - N/A   Clear
1:15 PM 28.4 °F 19.7 °F 21.2 °F 74% 30.17 in 10.0 mi WSW 9.2 mph - N/A   Clear
1:35 PM 28.4 °F 19.1 °F 21.2 °F 74% 30.16 in 10.0 mi WSW 10.4 mph - N/A   Clear
1:55 PM 30.2 °F 21.9 °F 21.2 °F 69% 30.16 in 10.0 mi WSW 9.2 mph - N/A   Clear
2:15 PM 30.2 °F 21.9 °F 21.2 °F 69% 30.15 in 10.0 mi WSW 9.2 mph - N/A   Clear
2:55 PM 30.2 °F 22.6 °F 23.0 °F 75% 30.14 in 10.0 mi SW 8.1 mph - N/A   Clear
3:15 PM 30.2 °F 21.9 °F 23.0 °F 75% 30.14 in 10.0 mi SW 9.2 mph - N/A   Clear
3:35 PM 30.2 °F 21.9 °F 23.0 °F 75% 30.14 in 10.0 mi SW 9.2 mph - N/A   Clear
3:55 PM 30.2 °F 22.6 °F 23.0 °F 75% 30.13 in 10.0 mi SSW 8.1 mph - N/A   Clear
4:15 PM 30.2 °F 24.3 °F 23.0 °F 75% 30.12 in 10.0 mi SSW 5.8 mph - N/A   Clear
4:35 PM 28.4 °F 21.2 °F 23.0 °F 80% 30.11 in 10.0 mi SSW 6.9 mph - N/A   Clear
4:55 PM 28.4 °F 20.4 °F 23.0 °F 80% 30.11 in 10.0 mi SSW 8.1 mph - N/A   Clear
5:15 PM 28.4 °F 19.7 °F 23.0 °F 80% 30.11 in 10.0 mi South 9.2 mph - N/A   Clear
5:35 PM 28.4 °F 19.7 °F 23.0 °F 80% 30.11 in 10.0 mi SSW 9.2 mph - N/A   Clear
5:55 PM 28.4 °F 19.7 °F 23.0 °F 80% 30.10 in 10.0 mi South 9.2 mph - N/A   Clear
6:15 PM 26.6 °F 19.1 °F 23.0 °F 86% 30.09 in 10.0 mi South 6.9 mph - N/A   Clear
6:35 PM 26.6 °F 19.1 °F 21.2 °F 80% 30.09 in 10.0 mi South 6.9 mph - N/A   Clear
6:55 PM 26.6 °F 19.1 °F 21.2 °F 80% 30.08 in 10.0 mi South 6.9 mph - N/A   Clear
7:15 PM 26.6 °F 21.2 °F 21.2 °F 80% 30.08 in 10.0 mi South 4.6 mph - N/A   Clear
7:35 PM 24.8 °F 20.5 °F 21.2 °F 86% 30.08 in 10.0 mi SSE 3.5 mph - N/A   Clear
7:55 PM 23.0 °F 17.0 °F 21.2 °F 93% 30.07 in 10.0 mi ESE 4.6 mph - N/A   Clear
8:15 PM 23.0 °F 15.8 °F 19.4 °F 86% 30.07 in 10.0 mi ESE 5.8 mph - N/A   Clear
8:35 PM 23.0 °F 15.8 °F 19.4 °F 86% 30.06 in 10.0 mi ESE 5.8 mph - N/A   Clear
8:55 PM 23.0 °F 15.8 °F 21.2 °F 93% 30.05 in 10.0 mi SE 5.8 mph - N/A   Clear
9:15 PM 23.0 °F 15.8 °F 19.4 °F 86% 30.05 in 10.0 mi SE 5.8 mph - N/A   Clear
9:35 PM 23.0 °F 15.8 °F 19.4 °F 86% 30.05 in 10.0 mi South 5.8 mph - N/A   Clear
9:55 PM 23.0 °F 15.8 °F 19.4 °F 86% 30.05 in 10.0 mi SSE 5.8 mph - N/A   Clear
10:15 PM 24.8 °F 16.9 °F 19.4 °F 80% 30.04 in 10.0 mi South 6.9 mph - N/A   Clear
10:35 PM 23.0 °F - 19.4 °F 86% 30.04 in 10.0 mi Calm Calm - N/A   Clear
10:55 PM 23.0 °F 15.8 °F 19.4 °F 86% 30.03 in 10.0 mi SE 5.8 mph - N/A   Clear
11:15 PM 23.0 °F 18.4 °F 19.4 °F 86% 30.03 in 10.0 mi ESE 3.5 mph - N/A   Clear
11:35 PM 21.2 °F 14.9 °F 17.6 °F 86% 30.02 in 10.0 mi ESE 4.6 mph - N/A   Clear
11:55 PM 21.2 °F 13.6 °F 19.4 °F 93% 30.01 in 10.0 mi SE 5.8 mph - N/A   Clear